This is the latest recevied weather packets stored in our database for station/object KJ5JYX. If no packets are shown the sender has not sent any weather packets the latest 10 day(s).
| Time | Temp. | Humidity | Pressure | Rain* | Wind** | Luminosity | Snow |
|---|---|---|---|---|---|---|---|
| 1777825253 | 23.33° C | 50% | 1024.4 hPa | 0 mm | - | 567 W/m² | - |
| 1777824950 | 23.33° C | 52% | 1024.3 hPa | 0 mm | - | 552 W/m² | - |
| 1777824646 | 22.78° C | 56% | 1024.3 hPa | 0 mm | - | 542 W/m² | - |
| 1777824343 | 23.33° C | 54% | 1024.5 hPa | 0 mm | - | 525 W/m² | - |
| 1777824039 | 22.78° C | 56% | 1024.4 hPa | 0 mm | - | 519 W/m² | - |
| 1777823735 | 22.78° C | 57% | 1024.4 hPa | 0 mm | - | 500 W/m² | - |
| 1777823432 | 22.78° C | 58% | 1024.8 hPa | 0 mm | - | 498 W/m² | - |
| 1777823130 | 21.67° C | 61% | 1024.6 hPa | 0 mm | - | 466 W/m² | - |
| 1777822827 | 21.67° C | 61% | 1024.4 hPa | 0 mm | - | 469 W/m² | - |
| 1777822525 | 21.67° C | 65% | 1024.5 hPa | 0 mm | - | 454 W/m² | - |
| 1777822222 | 21.11° C | 65% | 1024.7 hPa | 0 mm | - | 440 W/m² | - |
| 1777821920 | 20.56° C | 68% | 1024.8 hPa | 0 mm | - | 429 W/m² | - |
| 1777821618 | 20° C | 68% | 1024.6 hPa | 0 mm | - | 420 W/m² | - |
| 1777821316 | 20° C | 70% | 1024.7 hPa | 0 mm | - | 405 W/m² | - |
| 1777821012 | 19.44° C | 72% | 1024.6 hPa | 0 mm | - | 391 W/m² | - |
| 1777820709 | 19.44° C | 72% | 1024.5 hPa | 0 mm | - | 279 W/m² | - |
| 1777820404 | 18.89° C | 71% | 1024.6 hPa | 0 mm | - | 313 W/m² | - |
| 1777820102 | 18.89° C | 72% | 1024.6 hPa | 0 mm | - | 188 W/m² | - |
| 1777819799 | 18.89° C | 72% | 1024.7 hPa | 0 mm | - | 114 W/m² | - |
| 1777819497 | 18.33° C | 75% | 1024.8 hPa | 0 mm | - | 71 W/m² | - |
| 1777819194 | 17.78° C | 74% | 1024.7 hPa | 0 mm | - | 48 W/m² | - |
| 1777818891 | 17.22° C | 73% | 1024.8 hPa | 0 mm | - | 124 W/m² | - |
| 1777818587 | 17.22° C | 73% | 1024.6 hPa | 0 mm | - | 94 W/m² | - |
| 1777818285 | 17.22° C | 74% | 1024.6 hPa | 0 mm | - | 171 W/m² | - |
| 1777817981 | 17.22° C | 78% | 1024.9 hPa | 0 mm | - | 98 W/m² | - |
* Rain latest hour (hover to see other rain measurements)
** Current wind speed in m/s (hover to see current wind gust speed)